weather.gov     
National Weather Service

Terminal Aerodrome Forecast
NWS Homepage
This page is being discontinued on March 12, 2014.
The same data is available at this site. Please update your bookmarks.
Thank you, and we apologize for the inconvenience.
Please send an email to SR-SRH.Webmaster@noaa.gov with any concerns.


Current Version
Previous Version:    01  02  03  04  05  06  07  08  09  10  11  12  13  14  15  16  17  18  19  20  21  22  23  24  25  26  27  28  29  30  
   31  32  33  34  35  36  37  38  39  40  41  
[Printable]
183
FTUS41 KCAR 211748
TAFPQI
TAF
KPQI 211748Z 2118/2218 VRB03KT P6SM OVC025
     FM212000 VRB03KT P6SM SCT007 OVC015
     FM212200 VRB03KT P6SM SCT015 BKN035
     FM220300 VRB03KT P6SM -SN SCT007 OVC020
     FM220800 00000KT 5SM BR SCT006 OVC015
      AMD LTD TO CLD VIS AND WIND=




183
FTUS41 KCAR 211748
TAFPQI
TAF
KPQI 211748Z 2118/2218 VRB03KT P6SM OVC025
     FM212000 VRB03KT P6SM SCT007 OVC015
     FM212200 VRB03KT P6SM SCT015 BKN035
     FM220300 VRB03KT P6SM -SN SCT007 OVC020
     FM220800 00000KT 5SM BR SCT006 OVC015
      AMD LTD TO CLD VIS AND WIND=


U.S. Dept. of Commerce
NOAA National Weather Service
1325 East West Highway
Silver Spring, MD 20910
E-mail: w-nws.webmaster@noaa.gov
Page last modified: May 16, 2007
NATIONAL WEATHER SERVICE: for Safety, for Work, for Fun - FOR LIFE